STARLINK-31034, 58785

Orbit data source: Space-Track

STARLINK-31034, 58785 is a payload satellite owned by SpaceX/Seattle (US) in LEO that was launched on Sun, 14 Jan 2024 UTC via an FALCON 9 launch vehicle from the Air Force Western Test Range (AFWTR). Payload-class satellites include a variety of spacecraft equipped with specific instruments for various scientific and technological missions. These include communications satellites like Starlink; space stations such as the ISS; scientific satellites like the Hubble; Earth observation satellites from companies like Planet Labs, Umbra, and HawkEye 360; GPS; miniature CubeSats for education and research; and military/defense satellites.

Loading next visibility...
Identifier
58785, 2024-011W
Orbit
LEO
Country
Flag of USUS
Related business
Manufacturer
SpaceX/Seattle
Mission
Operational Commercial Communications
Bus & Motor
STARLINK V2M, Unknown motor
Mass
730 kg wet, ~700 kg dry
Launch date (UTC)
2024-01-14 (2 years ago)
Launch vehicle
FALCON 9
Launch site
Air Force Western Test Range (AFWTR)
Object type
Payload
Rocket body
Debris
Shape & HBR
Box + 2 Pan, 17.7 m
Radar Cross Section
33.884 m², Large (>1 m²)

Expand to show TLE details & history
Last TLE update: 2 days ago

TLE from 2 days ago
0 STARLINK-31034
1 58785U 24011W   26171.36345792 -.00000915  00000-0 -15940-4 0  9997
2 58785  53.1596 152.7691 0001338  88.2270 271.8885 15.34407101137474
Epoch: 2026-06-20T08:43Z
TLE epoch observation values (Epoch: 2026-06-20T08:43:22.764Z)
Latitude
-0.00008°
Longitude
113.34504°
Altitude
463.553 km
Speed
7.636 km/s
True Right ascension
10h 11m 04s
True Declination
0° 00' 00"
Sunlit
Object was in daylight at epoch
Visualization orbit readout
Latitude
Unknown
Longitude
Unknown
Altitude
Unknown
Speed
Unknown
Apparent Right ascension
Unknown
Apparent Declination
Unknown
Sunlit
N/A
Visualization observer readout
Local Sidereal Time
21:32:02
Azimuth
Unknown
Elevation
Unknown
Doppler factor
Unknown
Orbital elements
Apogee altitude
463.854 km
Perigee altitude
462.024 km
Semi-major axis
6,841.076 km
Eccentricity
0.00013
Inclination
53.1596°
RAAN
152.7691°
Arg. of periapsis
88.227°
True anomaly
271.87318°
Mean anomaly
271.8885°
Eccentric anomaly
271.88084°
Mean motion
3.83581 °/min
Orbital period
93.85 mins
BSTAR
-0.00001594
Loading maneuver chart data...
Computing Atmospheric mass density...
Loading historical data...
Loading historical data...
Loading historical data...
Loading historical data...
Loading historical data...
Loading historical data...
Loading historical data...

Documentation

Showing up to 5 results
|